Wind_Speed
8 14 17 19 23 25 30 25 25 26 37 28 28 37 36 34 34 34 29 28 30 36 35 32 28 25 21 21 27 22 23 28
9 10 15 18 20 24 19 22 41 44 10 19 30 37 36 35 34 33 30 28 33 34 33 32 30 23 20 33 27 25 25 28
8 13 14 19 22 21 18 20 18 17 24 23 36 37 38 36 33 31 28 29 33 33 31 32 27 24 34 32 29 25 23 27
12 11 15 18 23 24 22 20 15 22 34 26 32 39 38 36 31 29 29 29 30 31 32 30 27 28 30 21 30 26 24 27
9 11 15 22 27 27 22 21 18 30 17 36 37 40 35 35 32 30 31 31 30 31 31 29 29 26 19 23 28 25 25 27
5 6 9 17 25 25 27 27 22 20 9 46 45 41 37 36 33 33 31 32 33 33 32 30 28 20 17 21 25 22 22 27
8 7 8 14 18 25 26 31 25 23 31 39 43 38 39 38 34 32 31 32 34 34 32 32 24 16 21 24 25 22 22 26
7 6 10 11 18 23 28 29 25 33 33 43 45 42 43 38 36 33 31 33 36 33 35 29 19 17 17 11 25 22 19 25
6 4 8 13 11 16 27 32 37 42 43 38 41 40 41 38 37 37 31 32 34 30 27 24 19 20 20 19 25 21 19 21
8 6 8 12 12 16 26 34 37 41 45 46 44 43 41 39 39 36 32 32 32 26 27 28 25 22 20 19 21 21 21 20
13 9 8 10 14 18 28 35 37 41 47 44 42 40 38 41 38 37 31 33 31 26 32 29 27 25 20 18 18 23 21 22
18 15 14 12 13 16 27 31 35 40 43 42 40 37 38 43 36 39 35 36 33 29 32 29 29 29 26 21 18 17 21 20
20 20 20 18 19 21 25 24 27 35 41 42 42 40 39 39 38 39 34 37 33 37 33 29 30 30 25 22 19 19 19 21
23 22 23 24 22 20 18 25 23 31 35 43 45 39 38 35 32 35 25 32 30 35 31 28 28 28 19 15 2 5 17 23
24 24 24 26 24 22 21 22 23 21 27 33 37 42 36 30 37 33 30 33 29 33 32 27 28 23 23 11 3 4 5 17
25 25 25 24 27 25 26 20 21 23 27 29 32 36 33 30 32 33 40 41 40 32 29 28 28 28 21 18 10 7 3 1
27 28 28 26 25 27 27 20 24 26 27 27 29 33 33 30 31 32 31 31 32 31 29 30 29 27 20 20 18 13 9 4
26 27 26 27 27 29 29 27 23 25 27 27 27 30 29 33 30 30 32 32 32 32 31 29 29 26 22 23 18 9 8 6
27 28 27 27 27 29 29 29 32 30 31 31 28 29 25 34 34 34 35 37 35 34 35 33 30 24 21 28 28 28 20 18
27 28 28 29 30 29 29 28 31 31 34 34 31 31 34 35 34 30 34 33 37 32 34 32 32 27 23 36 38 30 26 24
Wind_Direction
196 201 203 206 208 205 196 159 185 281 309 196 171 162 158 151 149 151 155 154 150 145 146 149 146 136 123 124 134 131 122 123
195 205 213 208 203 198 189 196 200 230 198 190 181 165 156 152 154 155 158 160 151 149 152 153 148 134 114 129 134 123 123 128
230 213 220 209 206 198 170 176 179 190 192 241 178 162 157 155 157 156 157 160 153 155 156 155 148 130 126 128 132 128 128 133
224 220 212 202 193 190 174 176 177 191 202 201 186 162 159 158 160 159 160 155 156 156 156 157 145 139 133 121 139 140 136 139
214 234 220 198 190 192 192 168 169 184 221 227 174 157 157 155 158 158 157 154 152 154 158 158 151 146 134 124 144 141 138 141
195 213 211 208 201 201 197 176 172 171 144 150 153 152 156 156 160 159 159 157 155 157 157 159 154 147 133 135 149 143 145 144
166 178 187 190 194 193 193 193 182 172 168 156 153 151 157 159 160 160 162 159 155 155 156 157 154 143 145 145 156 148 146 149
185 199 189 183 196 192 188 179 173 170 167 155 158 159 160 159 160 161 163 162 159 153 157 164 160 156 163 143 165 151 147 157
176 191 188 192 188 182 184 170 163 156 159 161 162 164 162 161 161 162 167 166 161 159 162 168 171 169 167 153 160 150 152 163
161 179 164 182 188 177 176 164 164 165 158 164 170 165 164 164 167 165 171 171 172 168 176 174 171 170 167 152 160 166 164 165
150 159 156 158 167 185 169 164 158 159 163 166 165 172 169 170 174 169 174 178 183 185 173 173 170 173 175 165 163 172 177 174
155 151 154 165 171 171 150 163 161 163 166 167 170 174 173 174 179 176 180 186 190 185 175 176 179 177 177 177 179 177 172 190
168 159 160 154 146 149 151 154 154 159 168 175 177 181 179 181 185 187 192 191 190 178 176 179 181 177 172 173 180 195 206 207
177 170 168 163 164 159 154 156 160 167 177 182 183 183 180 187 191 191 187 187 183 184 178 175 181 177 165 155 127 197 211 214
176 176 175 170 173 163 158 161 160 163 172 179 187 185 185 195 183 190 196 184 190 187 182 184 171 174 177 165 125 209 191 218
185 178 176 176 177 167 164 167 165 178 170 177 182 190 190 193 193 187 177 183 187 185 186 191 184 180 181 181 183 162 155 197
182 177 177 181 171 175 170 164 178 177 177 181 190 196 197 187 195 195 190 187 190 191 191 200 202 195 190 204 229 243 235 165
173 177 180 183 180 178 176 176 174 176 186 188 196 198 204 203 200 202 204 204 203 201 204 206 206 207 205 219 222 218 208 193
174 175 179 184 181 181 182 182 182 182 186 190 191 199 200 199 203 208 212 210 205 206 207 210 213 205 206 232 234 235 241 257
181 183 182 184 185 186 189 187 187 189 190 194 196 200 204 202 201 203 205 209 209 209 214 213 211 209 228 231 232 231 232 238
Height
752 754 756 758 760 764 767 766 771 774 781 796 796 797 801 804 806 809 816 820 824 827 831 836 839 841 846 846 850 851 852 857
752 753 755 756 757 762 765 768 771 782 796 793 791 798 801 803 806 811 816 822 824 828 833 837 840 843 845 847 851 852 855 860
750 751 753 755 757 760 766 769 771 775 780 786 794 797 800 803 808 811 816 821 825 829 834 838 842 844 848 850 852 852 857 861
747 749 751 752 755 757 763 767 768 771 778 778 793 796 799 801 809 812 817 821 827 830 836 840 842 846 849 850 852 854 858 862
744 746 748 748 751 755 759 766 769 774 777 784 786 794 800 803 810 813 818 821 826 831 837 841 843 846 850 851 854 856 859 862
742 743 745 747 749 752 756 761 767 773 767 767 781 790 798 804 810 812 817 819 824 830 836 841 844 847 850 852 855 856 859 861
740 741 742 744 746 749 752 759 764 766 767 776 782 789 798 803 807 812 818 822 826 832 835 841 845 847 849 852 855 857 858 861
737 739 741 743 745 746 749 753 758 764 770 775 783 789 795 798 804 812 820 824 828 832 835 841 846 846 849 851 855 857 858 862
737 738 739 741 744 745 745 749 757 762 766 775 783 788 791 795 804 812 819 824 829 834 837 841 846 848 849 852 855 856 859 862
737 738 738 739 742 745 746 750 755 761 766 773 781 786 791 794 802 810 816 823 828 832 836 840 844 847 848 852 854 856 859 861
738 738 737 738 741 745 747 750 753 761 766 773 776 785 789 794 801 807 814 821 827 832 834 838 841 845 848 851 854 855 858 861
738 739 738 739 740 744 744 750 756 759 766 771 777 785 789 795 802 807 813 819 824 828 832 835 840 843 847 850 854 856 857 859
737 740 741 741 742 745 748 751 754 760 766 772 778 785 789 795 800 806 811 815 821 824 829 833 837 841 846 849 853 855 857 859
734 738 741 743 745 746 749 752 757 762 768 772 777 784 788 794 798 803 807 813 818 822 825 829 833 838 841 848 852 855 854 856
731 735 739 742 746 749 752 757 760 765 768 772 777 783 789 793 796 799 805 812 817 820 821 825 827 832 836 841 850 853 851 853
729 733 737 741 744 748 752 755 759 763 766 773 777 783 787 791 794 800 804 808 813 815 818 822 825 826 833 836 839 842 848 852
726 731 735 739 742 746 750 754 759 763 768 772 777 781 785 788 791 795 801 805 809 812 816 819 822 824 828 833 836 840 843 844
722 727 731 736 739 742 747 751 756 761 767 771 775 780 782 785 790 794 798 801 804 809 813 817 820 822 826 831 833 836 837 839
717 722 727 732 737 741 744 748 753 757 762 767 771 775 779 783 787 791 794 799 803 806 810 813 816 819 823 829 831 831 831 836
712 717 722 727 732 737 742 746 749 753 758 762 766 770 773 778 782 786 790 794 799 802 804 807 809 813 819 826 826 826 827 828